K0PFX-8 Weather Reports


Display with metric or nautical units.
time (UTC)temp
F
wind
direction
speed
MPH
gust
MPH
rain 1hr
in
rain 24hr
in
rain mn
in
humidity
%
barometer
mb
20181214162544 43 10 11.0 7.0 0.00 0.53 0.16 100 1021.3
20181214161036 43 6 11.0 9.0 0.00 0.53 0.16 100 1021.8
20181214155537 43 46 0.0 0.0 0.00 0.53 0.16 100 1021.9
20181214154030 43 72 5.0 6.0 0.00 0.53 0.16 100 1021.8
20181214152532 43 325 8.0 7.0 0.00 0.53 0.16 100 1021.8
20181214151023 43 359 11.0 7.0 0.00 0.53 0.16 100 1021.6
20181214145525 43 24 7.0 13.0 0.00 0.53 0.16 100 1021.6
20181214145459 43 34 8.0 6.0 0.00 0.53 0.16 100 1021.6
20181214144018 43 359 10.0 7.0 0.00 0.53 0.16 100 1021.6
20181214142519 43 34 8.0 6.0 0.00 0.53 0.16 100 1021.6
20181214141049 43 21 5.0 11.0 0.00 0.53 0.16 100 1021.6
20181214141017 43 21 5.0 11.0 0.00 0.53 0.16 100 1021.6
20181214135642 44 335 8.0 6.0 0.00 0.53 0.16 100 1021.6
20181214135553 44 335 8.0 6.0 0.00 0.53 0.16 100 1021.6
20181214135519 44 335 8.0 6.0 0.00 0.53 0.16 100 1021.6
20181214134049 44 44 0.0 9.0 0.00 0.53 0.16 100 1021.4
20181214134016 44 44 0.0 9.0 0.00 0.53 0.16 100 1021.4
20181214132518 44 41 8.0 13.0 0.00 0.53 0.16 100 1021.2
20181214131006 44 27 9.0 8.0 0.00 0.53 0.16 100 1021.1
20181214125508 44 18 4.0 3.0 0.00 0.53 0.16 100 1021.0
20181214124003 44 13 8.0 9.0 0.00 0.53 0.16 100 1020.7
20181214122502 45 52 4.0 7.0 0.00 0.53 0.16 100 1020.6
20181214121000 45 23 7.0 10.0 0.00 0.53 0.16 100 1020.4
20181214115501 45 333 4.0 2.0 0.01 0.53 0.16 100 1020.1
20181214113952 45 11 8.0 11.0 0.01 0.53 0.16 100 1019.5
20181214112454 45 10 5.0 11.0 0.01 0.53 0.16 100 1019.4
20181214110944 45 51 7.0 7.0 0.01 0.53 0.16 100 1019.3
20181214105446 46 17 8.0 5.0 0.00 0.53 0.16 100 1019.1
20181214103938 46 11 0.0 8.0 0.00 0.53 0.16 100 1019.1
20181214102440 46 349 2.0 4.0 0.00 0.53 0.16 100 1019.0
20181214100936 46 17 0.0 0.0 0.00 0.53 0.15 100 1018.9
20181214095437 46 17 0.0 0.0 0.03 0.53 0.15 100 1018.9
20181214093932 46 17 0.0 0.0 0.03 0.53 0.15 100 1018.8
20181214092433 46 21 5.0 3.0 0.03 0.53 0.15 100 1018.9
20181214090930 46 329 7.0 4.0 0.03 0.53 0.15 100 1019.0
20181214085431 47 39 4.0 7.0 0.04 0.53 0.15 100 1018.9
20181214083923 47 333 5.0 5.0 0.04 0.53 0.15 100 1018.8
20181214082425 47 38 2.0 4.0 0.04 0.53 0.13 100 1018.7
20181214080915 47 32 4.0 3.0 0.04 0.53 0.12 100 1018.8
20181214075416 47 23 3.0 6.0 0.02 0.53 0.12 100 1018.5
20181214073910 47 4 2.0 0.0 0.02 0.53 0.11 100 1018.1
20181214072412 47 359 0.0 0.0 0.02 0.53 0.10 100 1018.1
20181214070910 47 342 5.0 3.0 0.02 0.53 0.08 100 1018.0
20181214065411 48 326 4.0 3.0 0.06 0.53 0.08 100 1017.9
20181214063905 48 14 0.0 0.0 0.06 0.53 0.08 100 1017.5
20181214062407 48 6 0.0 0.0 0.06 0.53 0.08 100 1017.5
20181214060858 48 38 0.0 0.0 0.06 0.53 0.07 100 1017.5
20181214055359 48 30 2.0 4.0 0.06 0.53 0.06 100 1017.5
20181214053852 48 352 5.0 0.0 0.06 0.53 0.06 100 1017.4
20181214052353 48 45 7.0 6.0 0.06 0.53 0.03 100 1017.3
20181214050841 48 14 3.0 4.0 0.06 0.53 0.02 100 1017.2
20181214045342 48 329 0.0 0.0 0.06 0.00 0.53 100 1017.3
20181214043834 49 20 0.0 0.0 0.06 0.00 0.51 100 1017.2
20181214042336 49 20 0.0 0.0 0.06 0.00 0.50 100 1017.0
20181214040828 49 20 0.0 0.0 0.06 0.00 0.49 100 1017.0
20181214035329 49 77 0.0 0.0 0.07 0.00 0.47 100 1017.0
20181214033825 49 77 0.0 0.0 0.07 0.00 0.45 100 1016.9
20181214032326 49 77 0.0 0.0 0.07 0.00 0.43 100 1016.8
20181214030822 49 77 0.0 0.0 0.07 0.00 0.42 100 1016.8
20181214025323 49 77 0.0 0.0 0.03 0.00 0.40 100 1016.8
20181214023814 49 77 0.0 0.0 0.03 0.00 0.40 100 1016.7
20181214022417 49 77 0.0 0.0 0.03 0.00 0.38 100 1016.7
20181214022316 49 77 0.0 0.0 0.03 0.00 0.38 100 1016.7
20181214020806 49 77 0.0 0.0 0.03 0.00 0.36 100 1016.8
20181214015307 48 77 0.0 0.0 0.09 0.00 0.34 100 1016.8
20181214013805 49 77 0.0 0.0 0.09 0.00 0.33 100 1016.7
20181214012307 48 77 0.0 0.0 0.09 0.00 0.33 100 1016.7
20181214010802 48 124 0.0 0.0 0.09 0.00 0.32 100 1016.6
20181214005303 48 124 0.0 0.0 0.06 0.00 0.31 100 1016.5
20181214003758 48 91 0.0 0.0 0.06 0.00 0.29 100 1016.4
20181214002300 48 122 0.0 0.0 0.06 0.00 0.27 100 1016.5
20181214000752 48 142 0.0 5.0 0.06 0.00 0.24 100 1016.4
20181213235252 48 104 0.0 0.0 0.06 0.00 0.22 100 1016.2
20181213233744 48 117 5.0 0.0 0.06 0.00 0.20 100 1016.1
20181213232243 48 193 0.0 0.0 0.06 0.00 0.19 100 1016.0
20181213230739 48 117 0.0 0.0 0.06 0.00 0.17 100 1015.9
20181213225238 48 98 1.0 3.0 0.02 0.00 0.16 100 1015.9
20181213223716 48 187 0.0 0.0 0.02 0.00 0.13 100 1015.9
20181213222218 48 181 0.0 0.0 0.02 0.00 0.12 100 1015.6
20181213220716 48 117 2.0 3.0 0.02 0.00 0.11 100 1015.5
20181213215215 48 150 4.0 8.0 0.04 0.00 0.10 100 1015.5
20181213213706 48 103 3.0 4.0 0.04 0.00 0.10 100 1015.5
20181213212205 48 134 1.0 4.0 0.04 0.00 0.10 100 1015.3
20181213210659 48 59 3.0 0.0 0.04 0.00 0.08 100 1014.7
20181213205201 48 73 0.0 0.0 0.03 0.00 0.08 100 1014.7
20181213203657 48 136 2.0 0.0 0.03 0.00 0.07 100 1014.9
20181213202158 48 142 5.0 5.0 0.03 0.00 0.05 100 1015.0
20181213200651 48 128 3.0 5.0 0.03 0.00 0.04 100 1015.1
20181213193643 47 212 2.0 7.0 0.01 0.00 0.03 100 1015.4
20181213192144 47 232 3.0 3.0 0.01 0.00 0.03 100 1015.4
20181213190631 47 169 2.0 2.0 0.01 0.00 0.02 100 1015.3
20181213185132 47 125 0.0 0.0 0.00 0.00 0.01 100 1015.3
20181213183630 47 135 0.0 3.0 0.00 0.00 0.01 100 1015.3
20181213182132 47 93 4.0 3.0 0.00 0.00 0.00 100 1015.4
20181213180624 47 184 5.0 7.0 0.00 0.00 0.00 100 1015.5
20181213175126 47 108 4.0 3.0 0.00 0.00 0.00 100 1015.8
20181213173617 46 118 3.0 3.0 0.00 0.00 0.00 100 1016.1
20181213172119 46 179 5.0 5.0 0.00 0.00 0.00 100 1016.4
20181213170613 46 122 4.0 6.0 0.00 0.00 0.00 100 1016.3
20181213165115 46 143 4.0 8.0 0.00 0.00 0.00 100 1016.8
20181213163608 46 170 4.0 4.0 0.00 0.00 0.00 100 1017.0